Location: Newcastle
(43.9170°N, 78.5830°W)
Time: 14:08:58
(UTC-04:00)

ISS - Visible Passes

Search period start: 22 September 2019 00:00
Search period end: 02 October 2019 00:00
Orbit: 411 x 421 km, 51.6° (Epoch: 23 September)

Date Brightness Start Highest point End Pass type
(mag) Time Alt. Az. Time Alt. Az. Time Alt. Az.
22 Sep -3.9 19:58:59 10° SW 20:02:18 78° SE 20:05:37 10° ENE visible
22 Sep -1.5 21:36:25 10° WNW 21:38:33 24° NW 21:38:33 24° NW visible
23 Sep -2.3 20:47:38 10° W 20:50:43 34° NNW 20:52:09 23° NNE visible
24 Sep -2.9 19:58:56 10° W 20:02:08 46° NNW 20:05:22 10° NE visible
24 Sep -1.2 21:36:47 10° WNW 21:38:32 19° NNW 21:38:32 19° NNW visible
25 Sep -1.8 20:48:01 10° WNW 20:50:46 23° N 20:51:58 19° NNE visible
26 Sep -2.0 19:59:12 10° WNW 20:02:07 28° NNW 20:05:03 10° NE visible
26 Sep -1.0 21:36:56 10° NW 21:38:13 17° NNW 21:38:13 17° NNW visible
27 Sep -1.8 20:48:16 10° NW 20:50:53 21° N 20:51:33 20° NNE visible
28 Sep -1.8 19:59:30 10° WNW 20:02:10 22° N 20:04:49 10° NE visible
28 Sep -0.9 21:36:44 10° NW 21:37:43 16° NW 21:37:43 16° NW visible
29 Sep -2.0 20:48:12 10° NW 20:50:56 23° N 20:51:00 23° NNE visible
30 Sep -1.8 19:59:34 10° NW 20:02:12 21° N 20:04:17 13° NE visible
30 Sep -0.8 21:36:20 10° NW 21:37:10 16° NW 21:37:10 16° NW visible
01 Oct -2.4 20:47:49 10° NW 20:50:27 31° N 20:50:27 31° N visible
